Regional Weather Roundup
Issued by NWS Wilmington, NC

Home | Current Version | Previous Version | Text Only | Print | Product List | Glossary On
Versions: 1 2 3 4 5 6 7 8 9 10 11 12 13 14 15 16 17 18 19 20 21 22 23 24 25 26 27 28 29 30 31 32 33 34 35 36 37 38 39 40 41 42 43 44 45 46 47 48 49 50
000
ASUS42 KILM 281713
RWRILM
RWRILM
REGIONAL HOURLY WEATHER ROUNDUP
NATIONAL WEATHER SERVICE WILMINGTON NC
100 PM EDT THU MAY 28 2015

NOTE: "FAIR" INDICATES FEW OR NO CLOUDS BELOW 12,000 FEET WITH NO
SIGNIFICANT WEATHER AND/OR OBSTRUCTIONS TO VISIBILITY.

...............WFO WILMINGTON COUNTY WARNING AREA...............

......COASTAL NC AND SC COUNTIES......

CITY           SKY/WX    TMP DP  RH WIND       PRES   REMARKS
WILMINGTON     SUNNY     80  63  55 SE8       30.24F
N MYRTLE BEACH SUNNY     79  63  57 SE12      30.24F
MYRTLE BEACH   MOSUNNY   81  63  54 SE12      30.26F

......INLAND NC AND SC COUNTIES.......

CITY           SKY/WX    TMP DP  RH WIND       PRES   REMARKS
LUMBERTON      MOSUNNY   84  67  56 S7        30.22F
ELIZABETHTOWN  MOSUNNY   82  64  54 CALM      30.23F
WHITEVILLE     SUNNY     82  65  56 E5        30.22F
FLORENCE       PTSUNNY   83  68  60 S8        30.22F
DARLINGTON     PTSUNNY   82  66  57 SE8       30.23F

....................REST OF NORTH CAROLINA......................

.........EASTERN NC.........

CITY           SKY/WX    TMP DP  RH WIND       PRES   REMARKS
CAPE HATTERAS  PTSUNNY   79  60  52 S7        30.27F
JACKSONVILLE   CLOUDY    82  64  54 SE6       30.24S
MOREHEAD CITY  SUNNY     79  64  60 SE9       30.25F
KENANSVILLE    PTSUNNY   82  63  52 CALM      30.24F
NEW BERN       SUNNY     83  64  52 SE8       30.24F
ELIZABETH CITY MOSUNNY   81  68  64 S8        30.23F

.........CENTRAL NC.........

CITY           SKY/WX    TMP DP  RH WIND       PRES   REMARKS
RALEIGH DURHAM PTSUNNY   83  70  64 VRB6      30.23F
ROCKY MOUNT    PTSUNNY   80  70  71 VRB3      30.23F
ROANOKE RAPIDS NOT AVBL
FAYETTEVILLE   PTSUNNY   79  69  71 CALM      30.23S
HOFFMAN        MOSUNNY   84  67  57 SE9       30.25F

.........WESTERN NC.........

CITY           SKY/WX    TMP DP  RH WIND       PRES   REMARKS
CHARLOTTE      MOSUNNY   84  61  45 VRB5      30.22F
GREENSBORO     PTSUNNY   84  65  52 S9        30.22S
HICKORY        NOT AVBL
BOONE          NOT AVBL
ASHEVILLE      NOT AVBL

.....................REST OF SOUTH CAROLINA.....................

.........EASTERN SC.........

CITY           SKY/WX    TMP DP  RH WIND       PRES   REMARKS
CHARLESTON     MOSUNNY   83  66  56 E7        30.22F
BEAUFORT MCAS  MOSUNNY   85  67  54 E8        30.21F
HILTON HEAD    MOSUNNY   81  70  69 NE7       30.23F

.........CENTRAL SC.........

CITY           SKY/WX    TMP DP  RH WIND       PRES   REMARKS
COLUMBIA       MOSUNNY   86  64  47 NE8       30.21F
ORANGEBURG     MOSUNNY   83  65  54 SE8       30.22F
SUMTER SHAW    MOSUNNY   84  67  55 SE8       30.21F

.........WESTERN SC.........

CITY           SKY/WX    TMP DP  RH WIND       PRES   REMARKS
GREENVILLE     NOT AVBL
ROCK HILL      MOSUNNY   82  67  60 VRB3      30.22F
ANDERSON       PTSUNNY   86  66  51 SE9       30.21F
CLEMSON        NOT AVBL
GREENWOOD      MOSUNNY   82  67  60 S8        30.23F


...................COASTAL AND OFFSHORE REPORTS..................

................LOCAL PIERS AND NC RESERVE................


STATION/POSITION TIME  SKY/WX   TEMP    WIND        PRES    VSBY
                                AIR SEA DIR/SP/G
                 (UTC)          (F)     (DEG/KT/KT) (MB)    (MI)
JOHNY MRCER PIER 1600            76 79  140/  5/  6 1024.3R
NC RESRV MASNBRO NOT AVBL
OCEAN CREST PIER 1702            76 80  100/ 11/ 12 1023.4F
SPRINGMAID  PIER 1600            77 78   90/  5/  8 1024.4F


................COASTAL AND OFFSHORE BUOYS................


STATION/POSITION TIME  SKY/WX   TEMP    WIND        PRES    VSBY
                                AIR SEA DIR/SP/G
                 (UTC)          (F)     (DEG/KT/KT) (MB)    (MI)
DIMNDSHOAL 41025 1650            75 78  160/  6/  6 1025.1F
WVE H/P(F/S)=  3/ 8 SWL H/P/D(F/S/D)=  3/130/ 8

CAPE LOOKOUT     1700            74     120/  9/ 10 1024.2F
ONSLOW BAY 41036 NOT AVBL
5 WRITEBCH 41038 1608            76 78  130/  2/  6 1024.7S
MASONBORO  41110 1619               78                N/A
WVE H/P(F/S)=  3/ 8 WND WVE H/P(F/S)=  3/ 8

WILM HARBR 41108 1611               77                N/A
WVE H/P(F/S)=  3/ 7 WND WVE H/P(F/S)=  3/ 7

27WRITEBCH 41037 1600               76  110/  4/  6   N/A
FRYING PAN 41013 1650            76 75  100/  6/  8 1024.9F
WVE H/P(F/S)=  4/ 8 WND WVE H/P(F/S)=  2/ 4 SWL H/P/D(F/S/D)=  3/130/ 8

SUNST NRSH 41024 1608            75     150/  6/  8 1024.4F
CAPRS NRSH 41029 1608            76     100/  8/ 12 1024.2F
EDISTO     41004 1650            76 78   90/  8/ 10 1023.3F
WVE H/P(F/S)=  4/ 8 WND WVE H/P(F/S)=  2/ 4 SWL H/P/D(F/S/D)=  3/ 8



..........OFFSHORE BUOYS BEYOND 100 NM OFFSHORE...........
.....IN A TRIANGLE---HAT TO BERMUDA TO BAHAMAS TO HAT.....


STATION/POSITION TIME  SKY/WX   TEMP    WIND        PRES    VSBY
                                AIR SEA DIR/SP/G
                 (UTC)          (F)     (DEG/KT/KT) (MB)    (MI)
150E HAT   41001 NOT AVBL
W BERMUDA  41048 1650            74 74   70/ 16/ 19 1021.5F
WVE H/P(F/S)=  7/ 8 WND WVE H/P(F/S)=  5/ 6 SWL H/P/D(F/S/D)=  5/ 60/ 8

ATLANTIC S 41049 1650            74 77   40/ 10/ 12 1017.3F
WVE H/P(F/S)=  6/ 9 WND WVE H/P(F/S)=  2/ 4 SWL H/P/D(F/S/D)=  5/ 70/ 9

E BAHAMAS  41046 1650            77 81  290/  8/ 10 1015.9F
WVE H/P(F/S)=  6/10 WND WVE H/P(F/S)=  2/ 3 SWL H/P/D(F/S/D)=  7/ 40/10

NE BAHAMAS 41047 1650            76 77   60/ 14/ 16 1017.4F
WVE H/P(F/S)=  7/10 WND WVE H/P(F/S)=  3/ 6 SWL H/P/D(F/S/D)=  7/ 80/10

120E CANVRL41010 1620            77 81   60/ 14/ 17 1021.9R

END



USA.gov is the U.S. government's official web portal to all federal, state and local government web resources and services.